GW7818 Weather Reports


time (UTC)temp
C
wind
direction
speed
KPH
gust
KPH
rain 1hr
cm
rain 24hr
cm
rain mn
cm
humidity
%
barometer
mb
20260906121802 22 0 0.0 0.0 0.00 2.77 0.00 98 1014.2
20260906120002 21 0 0.0 0.0 0.00 2.77 0.00 98 1014.0
20260906115402 22 146 0.0 1.6 0.00 2.77 0.00 98 1014.0
20260906114502 22 146 0.0 1.6 0.00 2.77 0.00 98 1013.9
20260906113602 21 0 0.0 0.0 0.00 2.77 0.00 98 1014.0
20260906112702 21 0 0.0 0.0 0.00 2.77 0.00 98 1014.1
20260906111802 21 0 0.0 0.0 0.00 2.77 0.00 98 1014.0
20260906110902 21 0 0.0 0.0 0.00 2.77 0.00 98 1013.9
20260906110002 21 0 0.0 0.0 0.00 2.77 0.00 98 1014.0
20260906105423 21 0 0.0 0.0 0.00 2.77 0.00 98 1013.9
20260906104502 21 0 0.0 0.0 0.00 2.77 0.00 98 1014.0
20260906103602 21 0 0.0 0.0 0.00 2.77 0.00 98 1013.7
20260906102702 21 0 0.0 0.0 0.00 2.77 0.00 98 1013.7
20260906101802 21 0 0.0 0.0 0.00 2.77 0.00 98 1013.7
20260906100902 21 0 0.0 0.0 0.00 2.77 0.00 98 1013.6
20260906100002 21 0 0.0 0.0 0.00 2.77 0.00 98 1013.7
20260906095402 21 0 0.0 0.0 0.00 2.77 0.00 98 1013.7
20260906094523 21 0 0.0 0.0 0.00 2.77 0.00 98 1013.7
20260906093602 21 0 0.0 0.0 0.00 2.77 0.00 98 1013.6
20260906092702 21 0 0.0 0.0 0.00 2.77 0.00 98 1013.5
20260906091802 21 0 0.0 0.0 0.00 2.77 0.00 98 1013.9
20260906090902 21 0 0.0 0.0 0.00 2.77 0.00 98 1013.7
20260906090002 21 0 0.0 0.0 0.00 2.77 0.00 98 1013.9
20260906085402 21 0 0.0 0.0 0.00 2.77 0.00 98 1013.6
20260906084523 21 0 0.0 0.0 0.00 2.77 0.00 97 1013.7
20260906083602 21 0 0.0 0.0 0.00 2.77 0.00 97 1013.5
20260906082702 21 0 0.0 0.0 0.00 2.77 0.00 97 1013.5
20260906081802 21 0 0.0 0.0 0.00 2.77 0.00 97 1013.6
20260906080902 21 0 0.0 0.0 0.00 2.77 0.00 97 1013.7
20260906080002 21 0 0.0 0.0 0.00 2.77 0.00 97 1013.5
20260906075402 21 0 0.0 0.0 0.00 2.77 0.00 97 1013.5
20260906074502 21 0 0.0 0.0 0.00 2.77 0.00 97 1013.4
20260906073602 21 0 0.0 0.0 0.00 2.77 0.00 97 1013.4
20260906072702 21 0 0.0 0.0 0.00 2.77 0.00 97 1013.5
20260906071802 21 0 0.0 0.0 0.00 2.77 0.00 97 1013.7
20260906070902 21 0 0.0 0.0 0.00 2.77 0.00 97 1013.7
20260906070002 21 0 0.0 0.0 0.00 2.77 0.00 97 1013.6
20260906065402 21 0 0.0 0.0 0.00 2.77 0.00 97 1013.6
20260906064502 21 0 0.0 0.0 0.00 2.77 0.00 97 1013.4
20260906063602 21 0 0.0 0.0 0.00 2.77 0.00 97 1013.7
20260906062702 21 0 0.0 0.0 0.00 2.77 0.00 97 1013.7
20260906061802 22 0 0.0 0.0 0.00 2.77 0.00 97 1014.2
20260906060902 22 0 0.0 0.0 0.00 2.77 0.00 97 1014.1
20260906060002 22 0 0.0 0.0 0.00 2.77 0.00 97 1014.2
20260906055423 22 0 0.0 0.0 0.00 2.77 0.00 97 1014.4
20260906054502 22 0 0.0 0.0 0.00 2.77 0.00 97 1014.3
20260906053602 22 0 0.0 0.0 0.00 2.77 0.00 97 1014.5
20260906052702 22 0 0.0 0.0 0.00 2.77 0.00 97 1014.4
20260906051802 22 0 0.0 0.0 0.00 2.77 0.00 97 1014.5
20260906050902 22 0 0.0 0.0 0.00 2.77 0.00 97 1014.6
20260906050002 22 0 0.0 0.0 0.00 2.77 0.00 97 1014.6
20260906045402 22 0 0.0 0.0 0.00 2.77 0.00 97 1014.6
20260906044502 22 0 0.0 0.0 0.00 2.77 0.00 97 1014.5
20260906043602 22 0 0.0 0.0 0.00 2.77 0.00 97 1014.4
20260906042702 22 0 0.0 0.0 0.00 2.77 0.00 96 1014.5
20260906041802 22 0 0.0 0.0 0.00 2.77 0.00 96 1014.5
20260906040902 22 0 0.0 0.0 0.00 2.77 0.00 96 1014.4
20260906040002 22 0 0.0 0.0 0.00 2.77 0.00 96 1014.7
20260906035402 22 0 0.0 0.0 0.00 2.77 2.77 96 1014.8
20260906034502 22 0 0.0 0.0 0.00 2.77 2.77 96 1014.8
20260906033602 22 0 0.0 0.0 0.00 2.77 2.77 96 1014.5
20260906032702 22 0 0.0 0.0 0.00 2.77 2.77 96 1014.8
20260906031802 22 0 0.0 0.0 0.00 2.77 2.77 96 1015.1
20260906030902 22 0 0.0 0.0 0.00 2.77 2.77 95 1015.1
20260906030023 22 0 0.0 0.0 0.00 2.77 2.77 95 1015.1
20260906025402 22 0 0.0 0.0 0.00 2.77 2.77 95 1015.1
20260906024502 22 0 0.0 0.0 0.00 2.77 2.77 95 1015.2
20260906023602 22 0 0.0 0.0 0.00 2.77 2.77 95 1015.1
20260906022702 22 0 0.0 0.0 0.00 2.77 2.77 94 1015.0
20260906021802 22 0 0.0 0.0 0.00 2.77 2.77 94 1014.9
20260906020902 22 0 0.0 0.0 0.00 2.77 2.77 94 1015.1
20260906020002 22 0 0.0 0.0 0.00 2.77 2.77 94 1014.8
20260906015402 22 0 0.0 0.0 0.00 2.77 2.77 94 1015.0
20260906014523 23 134 0.0 1.6 0.00 2.77 2.77 92 1014.9
20260906013623 23 187 0.0 1.6 0.00 2.77 2.77 89 1014.9
20260906012702 23 275 0.0 3.2 0.00 2.77 2.77 91 1015.2
20260906011802 23 257 1.6 9.7 0.00 2.77 2.77 90 1015.1
20260906010902 23 96 1.6 9.7 0.00 2.77 2.77 94 1014.7
20260906010023 23 0 0.0 0.0 0.00 2.77 2.77 96 1013.6
20260906005402 23 0 0.0 0.0 0.00 2.77 2.77 96 1013.6
20260906004502 23 0 0.0 0.0 0.00 2.77 2.77 96 1013.5
20260906003602 23 0 0.0 0.0 0.00 2.77 2.77 95 1013.7
20260906002702 23 0 0.0 0.0 0.00 2.77 2.77 95 1013.3
20260906001823 23 0 0.0 0.0 0.00 2.77 2.77 95 1013.1
20260906000902 23 0 0.0 0.0 0.00 2.77 2.77 95 1013.1
20260906000002 23 0 0.0 0.0 0.00 2.77 2.77 95 1012.8
20260905235402 23 0 0.0 0.0 0.00 2.77 2.77 95 1012.4
20260905234502 23 0 0.0 0.0 0.00 2.77 2.77 94 1012.8
20260905233602 23 0 0.0 0.0 0.00 2.77 2.77 94 1012.5
20260905232723 23 0 0.0 0.0 0.00 2.77 2.77 93 1012.7
20260905231802 23 258 0.0 1.6 0.03 2.77 2.77 92 1012.7
20260905230902 23 190 0.0 1.6 0.03 2.77 2.77 90 1013.2
20260905230002 23 140 0.0 4.8 0.61 2.77 2.77 90 1013.0
20260905225402 23 159 0.0 4.8 1.35 2.77 2.77 88 1013.4
20260905224502 23 190 3.2 6.4 2.67 2.77 2.77 89 1013.6
20260905223602 23 352 1.6 9.7 2.77 2.77 2.77 90 1014.1
20260905222702 23 121 0.0 3.2 2.77 2.77 2.77 95 1014.4
20260905221802 23 334 0.0 4.8 2.74 2.74 2.74 93 1013.9
20260905220902 23 244 4.8 14.5 2.74 2.74 2.74 89 1013.5
20260905220002 25 237 3.2 16.1 2.16 2.16 2.16 89 1014.4
20260905215402 25 218 1.6 16.1 1.42 1.42 1.42 89 1013.7
20260905214502 32 44 3.2 4.8 0.10 0.10 0.10 66 1012.8
20260905213602 36 85 1.6 1.6 0.00 0.00 0.00 48 1012.2
20260905212723 35 70 1.6 3.2 0.00 0.00 0.00 43 1011.9
20260905211823 36 208 1.6 4.8 0.00 0.00 0.00 43 1012.0
20260905210902 35 192 1.6 3.2 0.00 0.00 0.00 43 1012.1
20260905210002 35 179 0.0 1.6 0.00 0.00 0.00 45 1012.4
20260905205402 35 87 0.0 1.6 0.00 0.00 0.00 46 1012.3
20260905204502 36 88 0.0 1.6 0.00 0.00 0.00 43 1012.7
20260905203602 35 211 0.0 1.6 0.00 0.00 0.00 41 1012.5
20260905202702 34 181 1.6 3.2 0.00 0.00 0.00 46 1012.6
20260905201802 34 0 0.0 1.6 0.00 0.00 0.00 46 1012.7
20260905200902 36 162 0.0 1.6 0.00 0.00 0.00 45 1013.0
20260905200002 36 214 0.0 1.6 0.00 0.00 0.00 42 1012.9
20260905195402 36 276 1.6 4.8 0.00 0.00 0.00 40 1013.2
20260905194502 36 233 0.0 3.2 0.00 0.00 0.00 42 1012.8
20260905193602 36 152 1.6 3.2 0.00 0.00 0.00 42 1013.0
20260905192702 35 29 1.6 3.2 0.00 0.00 0.00 43 1013.2
20260905191802 36 216 3.2 9.7 0.00 0.00 0.00 42 1013.4
20260905190902 36 189 3.2 9.7 0.00 0.00 0.00 40 1013.5
20260905190002 35 117 1.6 4.8 0.00 0.00 0.00 43 1013.7
20260905185402 35 230 3.2 6.4 0.00 0.00 0.00 45 1013.7
20260905184523 34 207 1.6 1.6 0.00 0.00 0.00 49 1014.0
20260905183602 33 172 1.6 1.6 0.00 0.00 0.00 49 1014.0
20260905182702 33 225 0.0 1.6 0.00 0.00 0.00 49 1014.2
20260905181802 35 206 1.6 1.6 0.00 0.00 0.00 48 1014.2
20260905180902 35 109 1.6 3.2 0.00 0.00 0.00 47 1014.3
20260905180023 34 315 1.6 4.8 0.00 0.00 0.00 44 1014.4
20260905175402 34 283 1.6 4.8 0.00 0.00 0.00 47 1014.4
20260905174502 33 56 1.6 1.6 0.00 0.00 0.00 50 1014.8
20260905173602 35 183 1.6 3.2 0.00 0.00 0.00 46 1014.8
20260905172702 34 119 1.6 4.8 0.00 0.00 0.00 47 1014.9
20260905171802 34 343 1.6 4.8 0.00 0.00 0.00 48 1014.9
20260905170923 33 179 1.6 4.8 0.00 0.00 0.00 50 1015.1
20260905170002 33 326 1.6 1.6 0.00 0.00 0.00 50 1015.0
20260905165402 32 336 1.6 3.2 0.00 0.00 0.00 50 1015.1
20260905164502 32 326 1.6 4.8 0.00 0.00 0.00 51 1015.3
20260905163602 32 349 3.2 3.2 0.00 0.00 0.00 50 1015.5
20260905162702 32 341 3.2 6.4 0.00 0.00 0.00 50 1015.4
20260905161802 32 41 0.0 1.6 0.00 0.00 0.00 52 1015.7
20260905160902 31 339 3.2 6.4 0.00 0.00 0.00 55 1015.9
20260905160002 31 326 3.2 6.4 0.00 0.00 0.00 53 1015.8
20260905155423 32 215 4.8 4.8 0.00 0.00 0.00 53 1015.9
20260905154502 30 352 1.6 3.2 0.00 0.00 0.00 57 1016.1
20260905153602 30 345 1.6 3.2 0.00 0.00 0.00 58 1016.0
20260905152702 31 265 1.6 1.6 0.00 0.00 0.00 59 1016.0
20260905151802 31 289 1.6 3.2 0.00 0.00 0.00 61 1016.2
20260905150902 30 2 0.0 1.6 0.00 0.00 0.00 59 1016.1
20260905150002 30 1 1.6 1.6 0.00 0.00 0.00 61 1016.2
20260905145402 30 10 0.0 1.6 0.00 0.00 0.00 62 1016.1
20260905144502 30 58 0.0 1.6 0.00 0.00 0.00 64 1016.3
20260905143602 29 330 0.0 1.6 0.00 0.00 0.00 65 1016.3
20260905142723 28 331 1.6 3.2 0.00 0.00 0.00 67 1016.2
20260905141802 28 0 0.0 0.0 0.00 0.00 0.00 70 1016.5
20260905140902 27 246 0.0 1.6 0.00 0.00 0.00 71 1016.5
20260905140002 27 246 0.0 1.6 0.00 0.00 0.00 72 1016.5
20260905135402 26 0 0.0 0.0 0.00 0.00 0.00 75 1016.5
20260905134502 26 0 0.0 0.0 0.00 0.00 0.00 77 1016.3
20260905133602 26 0 0.0 0.0 0.00 0.00 0.00 82 1016.6
20260905132702 26 0 0.0 0.0 0.00 0.00 0.00 81 1016.5
20260905131802 25 0 0.0 0.0 0.00 0.00 0.00 84 1016.6
20260905130902 25 0 0.0 0.0 0.00 0.00 0.00 85 1016.8
20260905130002 24 0 0.0 0.0 0.00 0.00 0.00 89 1016.8
20260905125402 24 0 0.0 0.0 0.00 0.00 0.00 91 1016.9
20260905124502 23 0 0.0 0.0 0.00 0.00 0.00 92 1016.6
20260905123602 23 0 0.0 0.0 0.00 0.00 0.00 93 1016.6
20260905122702 23 0 0.0 0.0 0.00 0.00 0.00 94 1016.7